Location: Hlohovi?ky
(49.8934°N, 13.6739°E)
Time: 22:08:26
(UTC+00:00)

Cosmos 2112 Rocket - Pass Details

Date: 19 May 2025
Orbit: 753 x 782 km, 74.0° (Epoch: 15 June)

Event Time Altitude Azimuth Distance (km) Brightness Sun altitude
Exits shadow 23:41:15 39° 202° (SSW) 1,145 4.4 -19.6°
Maximum altitude 23:43:17 90° 108° (ESE) 774 3.9 -19.5°
Drops below altitude 10° 23:48:32 10° 24° (NNE) 2,307 7.6 -19.4°
Sets 23:50:55 0° 24° (NNE) 3,233 8.7 -19.3°
